Location: Unspecified
(0.0000°N, 0.0000°E)
Time: 10:23:00
(UTC+00:00)

Courier 1B - All Passes

Search period start: 04 September 2015 00:00
Search period end: 14 September 2015 00:00
Orbit: 963 x 1209 km, 28.3° (Epoch: 02 September)

Date Brightness Start Highest point End Pass type
(mag) Time Alt. Az. Time Alt. Az. Time Alt. Az.
04 Sep - 00:52:19 10° WNW 00:57:13 21° NNW 01:02:05 10° NNE night (unlit)
04 Sep - 08:34:58 10° NNW 08:41:23 29° NNE 08:48:03 10° E daylight
04 Sep - 10:28:10 10° WNW 10:36:02 89° NNE 10:43:55 10° ESE daylight
04 Sep - 12:23:58 10° W 12:30:41 30° SSW 12:37:10 10° SSE daylight
04 Sep - 20:10:04 10° SSW 20:14:50 21° SSE 20:19:38 10° ESE visible
04 Sep - 22:02:39 10° SW 22:09:11 75° SSE 22:15:40 10° ENE night (unlit)
04 Sep - 23:57:45 10° W 00:03:19 29° NNW 00:08:53 10° NNE night (unlit)
05 Sep - 07:41:47 10° NNW 07:47:14 22° NNE 07:53:01 10° ENE daylight
05 Sep - 09:34:21 10° NW 09:42:02 67° NNE 09:49:52 10° ESE daylight
05 Sep - 11:29:18 10° W 11:36:36 40° SSW 11:43:46 10° SE daylight
05 Sep - 13:28:13 10° SW 13:31:51 13° SSW 13:35:11 10° S daylight
05 Sep - 19:17:06 10° SSW 19:20:50 15° SSE 19:24:40 10° ESE visible
05 Sep - 21:09:03 10° SW 21:15:28 53° SSE 21:21:45 10° ENE visible
05 Sep - 23:03:27 10° W 23:09:31 41° NNW 23:15:33 10° NE night (unlit)
06 Sep - 01:01:52 10° NW 01:04:17 12° NNW 01:06:29 10° N night (unlit)
06 Sep - 06:48:55 10° NNW 06:53:03 16° NNE 06:57:33 10° ENE daylight
06 Sep - 08:40:43 10° NW 08:48:02 49° NNE 08:55:36 10° ESE daylight
06 Sep - 10:34:56 10° WNW 10:42:33 54° SSW 10:50:11 10° SE daylight
06 Sep - 12:32:24 10° WSW 12:37:35 18° SSW 12:42:28 10° SSE daylight
06 Sep - 18:24:32 10° S 18:26:42 12° SSE 18:29:04 10° SE visible
06 Sep - 20:15:32 10° SW 20:21:41 38° SSE 20:27:39 10° E visible
06 Sep - 22:09:20 10° WSW 22:15:46 58° NNW 22:22:07 10° NE night (unlit)
07 Sep - 00:06:17 10° WNW 00:10:14 16° NNW 00:14:02 10° NNE night (unlit)
07 Sep - 05:56:45 10° N 05:58:49 11° NNE 06:01:11 10° NE daylight
07 Sep - 07:47:16 10° NW 07:54:00 36° NNE 08:01:05 10° E daylight
07 Sep - 09:40:49 10° WNW 09:48:32 73° SSW 09:56:24 10° SE daylight
07 Sep - 11:37:11 10° WSW 11:43:22 24° SSW 11:49:20 10° SSE daylight
07 Sep - 19:22:09 10° SSW 19:27:48 28° SSE 19:33:21 10° E visible
07 Sep - 21:15:23 10° WSW 21:22:04 83° NNW 21:28:32 10° ENE visible
07 Sep - 23:11:19 10° WNW 23:16:17 22° NNW 23:21:08 10° NNE night (unlit)
08 Sep - 06:54:02 10° NNW 06:59:58 27° NNE 07:06:16 10° E daylight
08 Sep - 08:46:55 10° WNW 08:54:32 84° NNE 09:02:27 10° ESE daylight
08 Sep - 10:42:22 10° W 10:49:12 32° SSW 10:55:59 10° SSE daylight
08 Sep - 12:42:38 10° SSW 12:44:46 11° SSW 12:46:35 10° S daylight
08 Sep - 18:28:51 10° SSW 18:33:50 21° SSE 18:38:46 10° ESE visible
08 Sep - 20:21:34 10° SW 20:28:20 71° SSE 20:34:49 10° ENE visible
08 Sep - 22:16:43 10° W 22:22:26 31° NNW 22:28:01 10° NNE night (unlit)
09 Sep - 06:01:03 10° NNW 06:05:53 19° NNE 06:11:05 10° ENE daylight
09 Sep - 07:53:14 10° NW 08:00:34 62° NNE 08:08:18 10° ESE daylight
09 Sep - 09:47:52 10° W 09:55:06 43° SSW 10:02:27 10° SE daylight
09 Sep - 11:46:11 10° SW 11:50:23 15° SSW 11:54:19 10° S daylight
09 Sep - 17:35:44 10° SSW 17:39:44 16° SSE 17:43:49 10° ESE daylight
09 Sep - 19:27:52 10° SW 19:34:34 50° SSE 19:40:56 10° ENE visible
09 Sep - 21:22:20 10° W 21:28:40 44° NNW 21:34:45 10° NE visible
09 Sep - 23:20:41 10° NW 23:23:18 12° NNW 23:25:41 10° N night (unlit)
10 Sep - 05:08:29 10° N 05:11:45 14° NNE 05:15:22 10° NE visible
10 Sep - 06:59:45 10° NW 07:06:37 45° NNE 07:13:56 10° E daylight
10 Sep - 08:53:39 10° WNW 09:01:03 57° SSW 09:08:45 10° SE daylight
10 Sep - 10:50:42 10° WSW 10:56:05 19° SSW 11:01:19 10° SSE daylight
10 Sep - 16:42:56 10° S 16:45:31 12° SSE 16:48:18 10° SE daylight
10 Sep - 18:34:16 10° SW 18:40:42 37° SSE 18:46:51 10° E visible
10 Sep - 20:28:09 10° WSW 20:34:55 63° NNW 20:41:21 10° NE visible
10 Sep - 22:25:04 10° WNW 22:29:17 17° NNW 22:33:18 10° NNE night (unlit)
11 Sep - 06:06:28 10° NNW 06:12:40 33° NNE 06:19:18 10° E daylight
11 Sep - 07:59:41 10° WNW 08:07:05 77° SSW 08:14:53 10° SE daylight
11 Sep - 09:55:41 10° WSW 10:01:52 25° SSW 10:08:02 10° SSE daylight
11 Sep - 17:40:46 10° SSW 17:46:45 27° SSE 17:52:31 10° E daylight
11 Sep - 19:34:08 10° WSW 19:41:10 88° NNW 19:47:48 10° ENE visible
11 Sep - 21:30:04 10° W 21:35:23 24° NNW 21:40:26 10° NNE visible
12 Sep - 05:13:23 10° NNW 05:18:42 24° NNE 05:24:25 10° ENE visible
12 Sep - 07:05:56 10° NW 07:13:09 79° NNE 07:20:51 10° ESE daylight
12 Sep - 09:01:03 10° W 09:07:43 33° SSW 09:14:33 10° SE daylight
12 Sep - 11:00:32 10° SW 11:03:16 12° SSW 11:05:43 10° S daylight
12 Sep - 16:47:23 10° SSW 16:52:40 21° SSE 16:57:53 10° ESE daylight
12 Sep - 18:40:14 10° SW 18:47:22 67° SSE 18:54:04 10° ENE visible
12 Sep - 20:35:23 10° W 20:41:32 34° NNW 20:47:21 10° NE visible
13 Sep - 04:20:35 10° NNW 04:24:41 17° NNE 04:29:07 10° ENE visible
13 Sep - 06:12:23 10° NW 06:19:16 57° NNE 06:26:38 10° ESE daylight
13 Sep - 08:06:42 10° W 08:13:40 44° SSW 08:20:56 10° SE daylight
13 Sep - 10:04:34 10° SW 10:08:54 15° SSW 10:13:03 10° SSE daylight
13 Sep - 15:54:11 10° SSW 15:58:30 16° SSE 16:02:53 10° ESE daylight
13 Sep - 17:46:27 10° SW 17:53:31 49° SSE 18:00:09 10° ENE daylight
13 Sep - 19:40:57 10° WSW 19:47:43 48° NNW 19:54:05 10° NE visible
13 Sep - 21:39:04 10° NW 21:42:19 14° NNW 21:45:17 10° N visible
